STARLINK-11161, 60124

Orbit data source: Space-Track

STARLINK-11161, 60124 is a payload satellite owned by SpaceX/Seattle (US) in LEO that was launched on Mon, 24 Jun 2024 UTC via an FALCON 9 launch vehicle from the Air Force Western Test Range (AFWTR). Payload-class satellites include a variety of spacecraft equipped with specific instruments for various scientific and technological missions. These include communications satellites like Starlink; space stations such as the ISS; scientific satellites like the Hubble; Earth observation satellites from companies like Planet Labs, Umbra, and HawkEye 360; GPS; miniature CubeSats for education and research; and military/defense satellites.

Loading next visibility...
Identifier
60124, 2024-118M
Orbit
LEO
Last TLE update
15 hours ago
Origin
Manufacturer
SpaceX/Seattle
Mission
Operational Commercial Communications
Bus & Motor
STARLINK V2M, Unknown motor
Mass
730 kg wet, ~700 kg dry
Launch date (UTC)
2024-06-24 (1 year ago)
Launch vehicle
FALCON 9
Launch site
Air Force Western Test Range (AFWTR)
Object type
Payload
Rocket body
Debris
Shape & HBR
Box + 2 Pan, 29 m
Radar Cross Section
33.884 m², Large (>1 m²)

Expand to show TLE details & history

TLE from 15 hours ago
0 STARLINK-11161
1 60124U 24118M   25187.45098496 -.00000991  00000-0 -33359-5 0  9996
2 60124  53.1580 355.5027 0000306  65.1310 294.9740 15.69707516 59319
Epoch: 2025-07-06T10:49Z
TLE epoch observation values (Epoch: 2025-07-06T10:49:25.1Z)
Latitude
Longitude
-91.52637°
Altitude
360.562 km
Speed
7.694 km/s
True Right ascension
23h 42m 00s
True Declination
0° 00' 00"
Sunlit
Object was in partial shadow at epoch
Visualization orbit readout
Latitude
-35.87059°
Longitude
118.04795°
Altitude
371.401 km
Speed
7.686 km/s
Apparent Right ascension
14h 41m 09s
Apparent Declination
-85° 42' 42"
Sunlit
Object is in full shadow
Visualization observer readout
Local Sidereal Time
13:32:56
Azimuth
178.45° S
Elevation
-35.806°
Doppler factor
1
Orbital elements
Apogee altitude
360.201 km
Perigee altitude
359.789 km
Semi-major axis
6,738.132 km
Eccentricity
0.00003
Inclination
53.158°
RAAN
355.5027°
Arg. of periapsis
65.131°
True anomaly
Unknown
Mean anomaly
294.974°
Eccentric anomaly
Unknown
Mean motion
3.92404 °/min
Orbital period
91.74 mins
BSTAR
-0.0000033359
Loading maneuver chart data...
Loading SW <> Apogee altitude chart data...
Loading historical data...
Loading historical data...
Loading historical data...
Loading historical data...
Loading historical data...
Loading historical data...
Loading historical data...

STARLINK-11161 Visibility forecast

Observer location: undefined°, undefined°

Span
Click to sort rows by Start time (UTC) header in descending order
Start Az.
Max El. time (UTC)
Max El. Az.
Max El.
End time (UTC)
End Az.
4 mins2025-07-07 20:58:17.676Z282.648° WNW2025-07-07 20:59:17.676Z244.901° WSW34.006°2025-07-07 21:02:17.676Z151.187° SSE
|